DateTimeUTC,F1_A11,F1_S11,BsB_S11,BsG_S11,BsR_S11,BbsB_S11,BbsG_S11,BbsR_S11,BaB_A11,BaG_A11,BaR_A11,Tu_S11,T_S11,Uu_S11,U_S11,P_S11,T1_A11
2021-06-10T08:00:00Z,00000200,20000000,,,,,,,-000.16,-000.11,-000.35,17.2,24.1,05.7,03.7,0663.1,31.0
2021-06-10T08:01:00Z,00000200,20000000,,,,,,,0000.68,0000.13,0000.36,17.2,24.1,05.7,03.7,0663.1,31.0
2021-06-10T08:02:00Z,00000200,20000000,,,,,,,-000.03,0000.33,0000.25,17.2,24.0,05.7,03.7,0663.1,31.0
2021-06-10T08:03:00Z,00000200,60000000,,,,,,,0000.05,0000.05,0000.26,17.2,24.1,05.7,03.7,0663.1,31.0
2021-06-10T08:04:00Z,00000200,40000000,0001.57,0000.71,0000.38,0000.72,-000.11,-000.23,0000.34,-000.02,0000.08,17.4,24.0,05.9,03.9,0664.1,31.0
2021-06-10T08:05:00Z,00000200,00000000,0001.87,0000.45,0000.15,0000.79,0000.06,-000.08,0000.17,0000.19,-000.15,17.4,23.9,05.9,04.0,0664.2,31.0
2021-06-10T08:06:00Z,00000200,00000000,0001.08,0000.65,0000.38,0000.27,0000.31,0000.13,0000.42,0000.41,0000.27,17.4,23.9,05.9,04.0,0664.2,31.0
2021-06-10T08:07:00Z,00000200,00000000,0001.60,0000.62,0000.48,0000.92,0000.18,0000.06,0000.30,0000.30,0000.41,17.4,23.9,05.9,04.0,0664.2,31.0
2021-06-10T08:08:00Z,00000200,00000000,0001.53,0000.62,0000.17,0000.60,0000.29,-000.02,0000.45,0000.35,0000.29,17.4,23.9,06.0,04.0,0664.2,31.0
2021-06-10T08:09:00Z,00000200,00000000,0001.58,0000.75,0000.06,0000.56,-000.01,-000.17,0000.14,0000.31,-000.08,17.4,23.9,05.9,04.0,0664.2,31.0
2021-06-10T08:10:00Z,00000200,00000000,0001.04,0000.63,0000.74,0000.70,0000.05,-000.03,0000.09,-000.08,0000.29,17.5,23.9,05.9,04.0,0664.2,31.0
2021-06-10T08:11:00Z,00000200,00000000,0001.20,0000.89,0000.25,0000.70,0000.18,0000.00,0000.34,0000.65,0000.32,17.5,23.9,06.0,04.0,0664.2,31.0
2021-06-10T08:12:00Z,00000200,00000000,0001.21,0000.75,0000.28,0000.36,0000.15,0000.05,0000.42,0000.11,-000.07,17.5,23.9,06.0,04.1,0664.2,31.0
2021-06-10T08:13:00Z,00000200,00000000,0001.35,0000.80,0000.24,0000.30,0000.02,-000.02,-000.06,-000.05,0000.42,17.5,23.9,06.0,04.0,0664.2,31.0
2021-06-10T08:14:00Z,00000200,00000000,0000.67,0000.30,0000.14,0000.64,-000.20,-000.03,0000.31,0000.61,0000.01,17.5,23.9,06.0,04.0,0664.2,31.0
2021-06-10T08:15:00Z,00000200,00000000,0002.08,0000.40,0000.32,0000.50,0000.09,0000.18,0000.34,-000.48,-000.09,17.5,23.9,05.9,04.0,0664.2,31.0
2021-06-10T08:16:00Z,00000200,00000000,0000.79,0000.50,0000.23,0000.68,0000.15,0000.24,0000.07,0000.69,0000.40,17.5,23.9,06.0,04.1,0664.2,31.0
2021-06-10T08:17:00Z,00000200,00000000,0001.05,0000.59,0000.21,0000.17,-000.05,0000.10,0000.52,0000.23,0000.01,17.5,23.9,06.0,04.1,0664.2,31.0
2021-06-10T08:18:00Z,00000200,00000000,0001.10,0000.38,0000.34,0000.87,0000.18,0000.02,0000.44,0000.23,0000.20,17.5,23.9,06.0,04.0,0664.2,31.0
2021-06-10T08:19:00Z,00000200,00000000,0001.21,0000.44,-000.14,0000.41,0000.14,-000.07,0000.19,0000.14,0000.03,17.5,23.9,06.0,04.0,0664.2,31.0
2021-06-10T08:20:00Z,00000200,00000000,0001.67,0000.41,0000.10,0000.62,0000.13,0000.05,-000.23,0000.24,0000.43,17.5,23.9,06.0,04.0,0664.2,31.0
2021-06-10T08:21:00Z,00000200,00000000,0001.01,0000.22,0000.30,0000.82,0000.09,0000.26,0000.24,0000.18,0000.30,17.5,23.9,05.9,04.0,0664.1,31.0
2021-06-10T08:22:00Z,00000200,00000000,0000.96,0000.50,0000.36,0001.08,0000.24,0000.11,0000.38,0000.26,0000.13,17.5,23.9,06.0,04.1,0664.1,31.0
2021-06-10T08:23:00Z,00000200,00000000,0000.95,0000.43,0000.42,0000.41,0000.00,-000.05,0000.58,0000.01,0000.22,17.5,23.9,06.0,04.1,0664.1,31.0
2021-06-10T08:24:00Z,00000200,00000000,0001.27,0000.14,0000.32,0000.70,0000.06,0000.32,-000.21,0000.40,-000.18,17.5,23.9,06.0,04.0,0664.1,31.0
2021-06-10T08:25:00Z,00000200,00000000,0001.83,0000.33,0000.07,0000.72,0000.08,0000.00,0000.08,-000.22,0000.08,17.5,23.9,05.9,04.0,0664.1,31.0
2021-06-10T08:26:00Z,00000200,00000000,0000.93,0000.38,0000.33,0000.58,0000.08,0000.19,0000.19,0000.53,0000.18,17.5,23.9,05.9,04.0,0664.1,31.0
2021-06-10T08:27:00Z,00000200,00000000,0000.75,0000.17,0000.33,0000.70,0000.12,0000.29,0000.41,0000.14,0000.22,17.5,23.9,05.9,04.0,0664.1,31.0
2021-06-10T08:28:00Z,00000200,00000000,0000.81,0000.33,0000.21,0000.89,0000.18,0000.20,0000.22,-000.04,0000.39,17.5,23.9,06.1,04.1,0664.1,31.0
2021-06-10T08:29:00Z,00000200,00000000,0001.12,0000.27,0000.18,0000.60,-000.15,0000.19,0000.28,0000.34,0000.12,17.5,23.9,05.9,04.0,0664.1,31.0
2021-06-10T08:30:00Z,00000200,00000000,0001.21,0000.46,0000.16,0000.65,0000.25,0000.07,0000.23,0000.46,0000.43,17.5,23.9,05.9,04.0,0664.1,31.0
2021-06-10T08:31:00Z,00000200,00000000,0000.83,0000.38,0000.29,0000.02,0000.10,0000.20,0000.35,0000.21,0000.09,17.5,23.9,05.8,03.9,0664.0,31.0
2021-06-10T08:32:00Z,00000200,00000000,0001.56,0000.32,0000.11,0000.74,0000.16,0000.28,-000.15,-000.43,-000.37,17.5,23.9,05.9,04.0,0664.0,31.0
2021-06-10T08:33:00Z,00000200,00000000,0000.86,0000.37,0000.21,0000.33,-000.07,-000.15,0000.35,0000.44,0000.41,17.6,23.9,05.9,04.0,0664.1,31.0
2021-06-10T08:34:00Z,00000200,00000000,0001.04,0000.41,0000.31,0000.15,-000.05,0000.38,0000.09,0000.19,0000.07,17.5,23.9,05.8,04.0,0664.1,31.0
2021-06-10T08:35:00Z,00000200,00000000,0001.69,0000.33,0000.39,0000.57,0000.06,-000.06,0000.12,-000.06,0000.11,17.5,23.9,05.7,03.9,0664.1,31.0
2021-06-10T08:36:00Z,00000200,00000000,0000.91,0000.25,0000.28,0000.69,0000.22,0000.21,0000.09,0000.05,0000.52,17.6,23.9,05.6,03.8,0664.1,31.0
2021-06-10T08:37:00Z,00000200,00000000,0001.07,0000.56,0000.38,0000.52,0000.06,0000.05,0000.48,0000.80,-000.10,17.6,23.9,05.7,03.9,0664.1,31.0
2021-06-10T08:38:00Z,00000200,00000000,0001.01,0000.45,0000.32,0000.54,0000.32,0000.01,0000.11,-000.01,0000.18,17.6,23.9,05.8,03.9,0664.1,31.0
2021-06-10T08:39:00Z,00000200,00000000,0001.08,0000.47,0000.44,0000.79,0000.07,0000.09,0000.12,0000.49,-000.06,17.6,23.9,05.8,03.9,0664.1,31.0
2021-06-10T08:40:00Z,00000200,00000000,0000.17,0000.37,0000.23,0000.38,0000.16,0000.08,0000.61,-000.14,-000.09,17.6,23.9,05.7,03.9,0664.1,31.0
2021-06-10T08:41:00Z,00000200,00000000,0000.75,0000.47,0000.48,0000.46,0000.11,-000.03,-000.04,0000.12,0000.41,17.6,23.9,05.7,03.8,0664.1,31.0
2021-06-10T08:42:00Z,00000200,00000000,0000.87,0000.39,0000.23,0000.78,0000.04,0000.15,0000.33,-000.05,-000.14,17.6,23.9,05.6,03.8,0664.1,31.0
2021-06-10T08:43:00Z,00000200,00000000,0001.08,0000.32,0000.36,0000.51,-000.01,0000.21,0000.21,0000.70,0000.20,17.6,23.9,05.6,03.8,0664.1,31.0
2021-06-10T08:44:00Z,00000200,00000000,0000.94,0000.54,0000.39,0000.25,0000.03,-000.13,0000.05,0000.08,0000.43,17.6,23.9,05.6,03.8,0664.1,31.0
2021-06-10T08:45:00Z,00000200,00000000,0000.87,0000.55,0000.35,0000.46,0000.20,0000.12,0000.13,0000.38,0000.30,17.6,23.9,05.5,03.7,0664.1,31.0
2021-06-10T08:46:00Z,00000200,00000000,0000.96,0000.26,0000.11,0000.82,0000.03,0000.10,0000.46,0000.20,0000.02,17.6,23.9,05.7,03.9,0664.1,31.0
2021-06-10T08:47:00Z,00000200,00000000,0000.95,0000.63,-000.06,0000.74,0000.22,0000.07,0000.02,-000.23,0000.07,17.6,23.9,05.5,03.8,0664.1,31.0
2021-06-10T08:48:00Z,00000200,00000000,0001.31,0000.33,0000.09,0000.71,0000.14,-000.06,0000.05,0000.47,0000.13,17.6,23.9,05.4,03.7,0664.1,31.0
2021-06-10T08:49:00Z,00000200,00000000,0001.43,0000.44,0000.24,0000.75,-000.00,0000.07,0000.05,-000.21,0000.02,17.6,23.9,05.4,03.7,0664.1,31.0
2021-06-10T08:50:00Z,00000200,00000000,0001.07,0000.50,0000.43,0000.23,0000.09,0000.18,0000.37,0000.29,0000.36,17.6,23.9,05.4,03.7,0664.1,31.0
2021-06-10T08:51:00Z,00000200,00000000,0001.27,0000.43,0000.37,0000.69,0000.25,-000.07,0000.40,0000.53,-000.19,17.6,23.9,05.4,03.7,0664.1,31.0
2021-06-10T08:52:00Z,00000200,00000000,0001.89,0000.86,0000.43,0000.44,0000.10,-000.03,0000.30,0000.00,0000.29,17.6,23.9,05.4,03.7,0664.1,31.0
2021-06-10T08:53:00Z,00000200,00000000,0001.24,0000.88,0000.70,0000.15,0000.18,0000.18,0000.04,0000.35,0000.53,17.7,23.9,05.4,03.6,0664.1,31.0
2021-06-10T08:54:00Z,00000200,00000000,0001.18,0000.48,0000.34,0000.60,0000.41,0000.31,0000.66,0000.10,0000.24,17.7,23.9,05.4,03.7,0664.1,31.0
2021-06-10T08:55:00Z,00000200,00000000,0001.49,0000.34,0000.68,0000.37,0000.13,0000.11,0000.28,0000.44,-000.16,17.7,23.9,05.4,03.7,0664.1,31.0
2021-06-10T08:56:00Z,00000200,00000000,0001.26,0000.63,0000.59,0000.54,0000.02,-000.21,0000.45,0000.34,0000.40,17.7,23.9,05.4,03.7,0664.1,31.0
2021-06-10T08:57:00Z,00000200,40000000,,,,,,,0000.15,0000.45,0000.60,17.7,24.0,05.5,03.7,0664.2,31.0
2021-06-10T08:58:00Z,00000200,60000000,,,,,,,-000.28,-000.73,-000.59,17.5,24.1,05.3,03.5,0663.1,31.0
2021-06-10T08:59:00Z,00000200,20000000,,,,,,,-000.49,0000.35,-000.36,17.5,24.2,05.3,03.5,0663.1,31.0
